OpenBCM V1.13 (Linux)

Packet Radio Mailbox

DB0FHN

[JN59NK Nuernberg]

 Login: GUEST





  
I0OJJ  > KEPS     03.02.25 06:03l 328 Lines 15577 Bytes #999 (0) @ AMSAT
BID : ORB25034.1
Read: DJ6UX GUEST
Subj: 2Line Orbital Elements 25034.AMSAT
Path: DB0FHN<DB0FFL<OE2XZR<OE6XPE<DB0ERF<DK0WUE<DK0WUE<VK5RSV<PI8ZTM<I0OJJ
Sent: 250203/0345z @:I0OJJ.ITA.EU [Rome] obcm1.08-6-g5b69
From: I0OJJ @ I0OJJ.ITA.EU (Gustavo)
To:   KEPS @ AMSAT
X-Info: This message was generated automatically


QST de W1STR

AMSAT Orbital Elements for Amateur Satellites in TLE Format
From Orbital Analysis Office
New England Sci-Tech STEM Education Center
Natick, MA February 03, 2025
To all radio amateurs


These element sets describe the orbits of various satellites 
in use by the amateur radio community. For details see:
www.amsat.org/keplerian-elements-formats/

A daily update of element sets is available at:
www.amsat.org/tle/daily-bulletin.txt
or without bulletin text:
www.amsat.org/tle/dailytle.txt


AO-07
1 07530U 74089B   25033.54004558 -.00000038  00000-0  53435-4 0  9993
2 07530 101.9929  36.4545 0012207   5.8593 114.5562 12.53685692297905
UO-11
1 14781U 84021B   25033.52989244  .00004170  00000-0  45298-3 0  9995
2 14781  97.7383   2.6050 0009086  45.8052 314.3910 14.88612931182735
AO-27
1 22825U 93061C   25033.64007691  .00000309  00000-0  13530-3 0  9991
2 22825  98.7568  94.4589 0009349 121.6205 238.5890 14.30721221635838
FO-29
1 24278U 96046B   25033.28635161  .00000083  00000-0  12347-3 0  9994
2 24278  98.5882 303.8519 0349283 312.4612  44.7481 13.53235373405554
NOAA-15
1 25338U 98030A   25033.82337422  .00000395  00000-0  18057-3 0  9996
2 25338  98.5493  61.9254 0010443  16.4890 343.6628 14.26873590390322
GO-32
1 25397U 98043D   25033.53928188  .00000275  00000-0  13912-3 0  9990
2 25397  98.9554  10.1132 0001082 163.3671 196.7543 14.24246356380423
ISS
1 25544U 98067A   25033.81337868  .00016800  00000-0  30449-3 0  9995
2 25544  51.6359 252.5860 0003802 264.0532  96.0023 15.49734752494323
NO-44
1 26931U 01043C   25033.57256647  .00000486  00000-0  21331-3 0  9995
2 26931  67.0507  96.1933 0006096 262.8808  97.1600 14.31606103219082
SO-50
1 27607U 02058C   25033.69867707  .00002901  00000-0  38759-3 0  9997
2 27607  64.5526 231.9851 0040908   6.6550 353.5089 14.80882058190641
CO-55
1 27844U 03031E   25033.49324127  .00000887  00000-0  40679-3 0  9999
2 27844  98.6787  43.4038 0009425 190.1708 169.9281 14.23799969120558
CO-57
1 27848U 03031J   25033.45365984  .00000763  00000-0  35704-3 0  9991
2 27848  98.6814  43.4637 0009040 207.6492 152.4206 14.23163482120284
RS-22
1 27939U 03042A   25033.84314852  .00003066  00000-0  49969-3 0  9992
2 27939  98.3122 200.3742 0012447  54.1508  52.5441 14.71698195142184
NOAA-18
1 28654U 05018A   25033.77954251  .00000423  00000-0  24796-3 0  9992
2 28654  98.8536 114.6451 0015064 127.9327 232.3210 14.13505010 15835
CO-58
1 28895U 05043F   25033.35241689  .00004643  00000-0  78006-3 0  9996
2 28895  98.2277 176.3451 0014782 353.7026   6.3991 14.70070200 28249
CO-65
1 32785U 08021C   25033.87689329  .00011000  00000-0  84341-3 0  9996
2 32785  97.7667   4.4353 0008634 286.2520  73.7754 15.01965451910116
AAUSAT2
1 32788U 08021F   25033.50788188  .00115948  00000-0  23864-2 0  9990
2 32788  97.6065  24.6004 0007554  89.7087 270.5027 15.45484607913515
CO-66
1 32791U 08021J   25033.41043070  .00025563  00000-0  14296-2 0  9990
2 32791  97.7178  11.1760 0002434 217.8886 142.2174 15.13453087911225
RS-30
1 32953U 08025A   25033.80800978  .00000050  00000-0  28948-3 0  9999
2 32953  82.5053 306.0429 0019294 325.0953  34.8861 12.43158257757785
NOAA-19
1 33591U 09005A   25033.76536600  .00000373  00000-0  22309-3 0  9993
2 33591  99.0161  97.6699 0013688   6.0639 354.0696 14.13275910824195
SRMSAT
1 37841U 11058D   25033.62392778  .00000676  00000-0  22426-3 0  9993
2 37841  19.9697 202.7738 0011803 108.1837 323.5741 14.11352231687151
ZACUBE-1
1 39417U 13066B   25033.40654799  .00010917  00000-0  99768-3 0  9997
2 39417  97.7652 351.4163 0047809 115.6518 244.9652 14.94314372605900
Delfi-N3xt
1 39428U 13066N   25033.31449018  .00018582  00000-0  20161-2 0  9991
2 39428  97.8378 312.6530 0091650  59.4027 301.6188 14.85123947600162
GOMX-1
1 39430U 13066Q   25033.84543657  .00005417  00000-0  86013-3 0  9998
2 39430  97.7002 260.2196 0133253 237.5836 121.2422 14.66696371596826
LO-74
1 39440U 13066AA  25033.80927029  .00008849  00000-0  93570-3 0  9992
2 39440  97.8379 339.5224 0062741 237.0374 122.4800 14.87979609603779
AO-73
1 39444U 13066AE  25033.40653779  .00015994  00000-0  13007-2 0  9995
2 39444  97.7488 355.3965 0043587  92.2863 268.3351 14.98890939604516
DTUSAT-2
1 40030U 14033W   25033.32583115  .00016517  00000-0  11639-2 0  9991
2 40030  98.0406 359.3972 0011278 124.4400 235.7893 15.05039567577230
EO-80
1 40032U 14033Y   25033.41969685  .00016422  00000-0  11542-2 0  9991
2 40032  98.0312 359.3216 0011470  75.0815 285.1679 15.05134600577228
XW-2C
1 40906U 15049H   25033.81932140  .00597029  15425-3  13779-2 0  9990
2 40906  97.4403  68.2209 0004129 158.2857 201.8596 15.97223120520412
LILACSAT-2
1 40908U 15049K   25033.84174864  .00018842  00000-0  56549-3 0  9990
2 40908  97.5171  51.4435 0008281 250.8491 109.1855 15.34468584518767
IO-86
1 40931U 15052B   25029.03811298  .00001879  00000-0  16388-3 0  9994
2 40931   5.9985 178.0957 0012329  44.5838 315.5281 14.78544596504930
Horyu-4
1 41340U 16012D   25032.87210078  .00033593  00000-0  11578-2 0  9994
2 41340  30.9977 265.8315 0005933 176.3092 183.7596 15.28801570493177
Lapan A3
1 41603U 16040E   25033.81560882  .00006601  00000-0  24113-3 0  9993
2 41603  97.1396  43.5064 0011558  11.8506 348.3004 15.28360021478418
CAS-2T
1 41847U 16066G   25033.25460842  .00004240  00000-0  61489-3 0  9998
2 41847  98.4342 108.8035 0348131 203.3517 155.1530 14.42839053432651
CAS-4B
1 42759U 17034B   25033.83396689  .00054017  00000-0  10654-2 0  9992
2 42759  43.0133 347.4939 0014955 130.9038 229.3118 15.46275921422871
CAS-4A
1 42761U 17034D   25033.86723847  .00054852  00000-0  10652-2 0  9993
2 42761  43.0170 345.2911 0016247 138.0961 222.1145 15.46697502422897
TechnoSat
1 42829U 17042E   25033.52011569  .00006691  00000-0  53898-3 0  9999
2 42829  97.3913 208.3934 0012721   9.1650 350.9804 15.00179217411662
AO-91
1 43017U 17073E   25033.18416083  .00019753  00000-0  10769-2 0  9997
2 43017  97.5480 267.2815 0182197 240.1442 118.1568 15.01245118390073
S-Net D
1 43186U 18014G   25033.26988755  .00012845  00000-0  80269-3 0  9997
2 43186  97.5744 297.5841 0008150 309.9547  50.0966 15.09560942383154
S-Net B
1 43187U 18014H   25033.27381719  .00013124  00000-0  82021-3 0  9995
2 43187  97.5745 297.5531 0008865 303.7114  56.3270 15.09546453383155
S-Net A
1 43188U 18014J   25033.27066848  .00012895  00000-0  80561-3 0  9990
2 43188  97.5756 297.6842 0008695 304.7917  55.2493 15.09565254383152
S-Net C
1 43189U 18014K   25033.27593824  .00013137  00000-0  82086-3 0  9994
2 43189  97.5767 297.6816 0010237 295.1655  64.8512 15.09544204381702
Ten-Koh
1 43677U 18084G   25033.52070317  .00006457  00000-0  53372-3 0  9991
2 43677  98.0823 200.7686 0012155 330.8676  29.1866 14.99250316341195
PO-101
1 43678U 18084H   25033.79507853  .00003543  00000-0  31140-3 0  9993
2 43678  98.0903 205.2381 0008590 352.4947   7.6143 14.97218702341400
QO-100
1 43700U 18090A   25033.83147861  .00000149  00000-0  00000+0 0  9996
2 43700   0.0176  95.3575 0001092 228.1396 134.8500  1.00271794 22913
MinXSS-2
1 43758U 18099A   25033.58457742  .00026546  00000-0  12435-2 0  9999
2 43758  97.5211  99.6311 0012509 239.9438 120.0556 15.19616908337646
AO-95
1 43770U 18099N   25033.61504752  .00017450  00000-0  97813-3 0  9999
2 43770  97.5122  93.3001 0010388 295.8403  64.1756 15.13407888337328
RANGE-A
1 43773U 18099R   25033.54611575  .00010336  00000-0  69257-3 0  9993
2 43773  97.4692  85.6633 0010444 267.7820  92.2212 15.07022499337076
MOVE-II
1 43780U 18099Y   25033.77380772  .00081087  00000-0  20050-2 0  9996
2 43780  97.4850 103.7007 0003876 245.9502 114.1339 15.40156119338094
SNUSat 2
1 43782U 18099AA  25033.11017651  .00015405  00000-0  91411-3 0  9990
2 43782  97.4803  90.5328 0011925 231.4594 128.5568 15.11368173337228
SnugLite
1 43784U 18099AC  25033.73728689  .00017504  00000-0  97417-3 0  9994
2 43784  97.4621  90.5065 0002698 221.2083 138.8945 15.13703457337428
ITASat 1
1 43786U 18099AE  25033.12499510  .00013290  00000-0  81580-3 0  9999
2 43786  97.4770  90.3914 0013965 287.7080  72.2625 15.10148636337200
EAGLET 1
1 43790U 18099AJ  25033.56575782  .00009609  00000-0  64174-3 0  9997
2 43790  97.4967  91.1221 0011346 264.6459  95.3475 15.07157857336926
ESEO
1 43792U 18099AL  25033.57715347  .00003396  00000-0  26527-3 0  9990
2 43792  97.4645  86.0230 0009335 220.4889 139.5642 15.01727017336759
CSIM
1 43793U 18099AM  25033.76015002  .00083660  00000-0  20714-2 0  9996
2 43793  97.5028 105.6360 0007459 222.0684 137.9990 15.40084781337930
JO-97
1 43803U 18099AX  25033.15911610  .00022740  00000-0  11786-2 0  9992
2 43803  97.4871  93.6472 0007269 224.1485 135.9168 15.16160666337438
Suomi 100
1 43804U 18099AY  25033.12829018  .00019110  00000-0  10407-2 0  9996
2 43804  97.4931  93.2096 0012544 227.7891 132.2277 15.14398898337389
ISAT
1 43879U 18111D   25033.32282178  .00033724  00000-0  14524-2 0  9996
2 43879  97.6045 305.5302 0008054 289.6754  70.3613 15.22490677334283
UWE-4
1 43880U 18111E   25033.22493845  .00029372  00000-0  13629-2 0  9991
2 43880  97.5977 304.6603 0011682 301.6278  58.3816 15.19932949334245
Sparrow
1 43881U 18111F   25033.26097115  .00035634  00000-0  14964-2 0  9997
2 43881  97.6166 307.9119 0007102 341.6831  18.4148 15.23341659334350
Prox-1
1 44339U 19036A   25033.76061329  .00021250  00000-0  30029-2 0  9995
2 44339  23.9966 172.3065 0008666  68.6548 291.4873 14.75623407299325
SONATE
1 44400U 19038Q   25033.51479402  .00086494  00000-0  11851-2 0  9997
2 44400  97.7105  47.3715 0010100  13.9518 346.2014 15.57033208309612
